Hourly Weather Bolshoe Gatische

Today, 16 June, Wednesday

Time Temperature Precipitation Wind Pressure Humidity
00:00 +16°C° 0 mm 3 mps 744 mmHg 94%
01:00 +16°C° 0 mm 3 mps 744 mmHg 94%
02:00 +16°C° 0 mm 2 mps 745 mmHg 94%
03:00 +14°C° 0 mm 3 mps 745 mmHg 93%
04:00 +13°C° 0 mm 3 mps 745 mmHg 92%
05:00 +12°C° 0 mm 3 mps 745 mmHg 91%
06:00 +13°C° 0 mm 3 mps 745 mmHg 85%
07:00 +14°C° 0 mm 3 mps 745 mmHg 79%
08:00 +16°C° 0 mm 3 mps 746 mmHg 73%
09:00 +17°C° 0 mm 3 mps 746 mmHg 68%
10:00 +19°C° 0 mm 3 mps 746 mmHg 62%
11:00 +20°C° 0 mm 2 mps 746 mmHg 57%
12:00 +20°C° 0 mm 3 mps 746 mmHg 55%
13:00 +21°C° 0 mm 3 mps 746 mmHg 53%
14:00 +22°C° 0 mm 3 mps 746 mmHg 51%
15:00 +22°C° 0 mm 3 mps 746 mmHg 54%
16:00 +22°C° 0 mm 3 mps 746 mmHg 57%
17:00 +22°C° 0 mm 3 mps 746 mmHg 60%
18:00 +20°C° 0 mm 3 mps 746 mmHg 67%
19:00 +18°C° 0 mm 3 mps 747 mmHg 73%
20:00 +17°C° 0 mm 2 mps 747 mmHg 79%
21:00 +16°C° 0 mm 2 mps 747 mmHg 81%
22:00 +14°C° 0 mm 2 mps 747 mmHg 83%
23:00 +13°C° 0 mm 2 mps 748 mmHg 84%

Tomorrow, 17 June, Thursday

Time Temperature Precipitation Wind Pressure Humidity
00:00 +13°C° 0 mm 2 mps 748 mmHg 84%
01:00 +12°C° 0 mm 2 mps 748 mmHg 83%
02:00 +12°C° 0 mm 2 mps 748 mmHg 83%
03:00 +12°C° 0 mm 2 mps 748 mmHg 83%
04:00 +12°C° 0 mm 2 mps 749 mmHg 83%
05:00 +12°C° 0 mm 2 mps 749 mmHg 83%
06:00 +14°C° 0 mm 2 mps 749 mmHg 78%
07:00 +16°C° 0 mm 2 mps 749 mmHg 73%
08:00 +18°C° 0 mm 2 mps 749 mmHg 68%
09:00 +19°C° 0 mm 2 mps 750 mmHg 65%
10:00 +21°C° 0 mm 2 mps 750 mmHg 62%
11:00 +23°C° 0 mm 2 mps 750 mmHg 58%
12:00 +24°C° 0 mm 2 mps 750 mmHg 56%
13:00 +24°C° 0 mm 2 mps 750 mmHg 55%
14:00 +25°C° 0 mm 2 mps 750 mmHg 53%
15:00 +25°C° 0 mm 2 mps 750 mmHg 55%
16:00 +25°C° 0 mm 2 mps 750 mmHg 56%
17:00 +25°C° 0 mm 2 mps 750 mmHg 58%
18:00 +24°C° 0 mm 2 mps 750 mmHg 64%
19:00 +21°C° 0 mm 2 mps 750 mmHg 69%
20:00 +21°C° 0 mm 1 mps 750 mmHg 74%
21:00 +19°C° 0 mm 2 mps 750 mmHg 78%
22:00 +17°C° 0 mm 2 mps 750 mmHg 81%
23:00 +16°C° 0 mm 2 mps 750 mmHg 85%

Day after tomorrow, 18 June, Friday

Time Temperature Precipitation Wind Pressure Humidity
00:00 +16°C° 0 mm 2 mps 750 mmHg 86%
01:00 +14°C° 0 mm 3 mps 750 mmHg 86%
02:00 +14°C° 0 mm 3 mps 750 mmHg 87%
03:00 +15°C° 0 mm 2 mps 751 mmHg 87%
04:00 +15°C° 0 mm 2 mps 751 mmHg 88%
05:00 +15°C° 0 mm 2 mps 751 mmHg 88%
06:00 +16°C° 0 mm 2 mps 751 mmHg 83%
07:00 +18°C° 0 mm 3 mps 751 mmHg 78%
08:00 +20°C° 0 mm 3 mps 751 mmHg 73%
09:00 +21°C° 0 mm 3 mps 751 mmHg 69%
10:00 +22°C° 0 mm 4 mps 751 mmHg 64%
11:00 +23°C° 0 mm 4 mps 751 mmHg 60%
12:00 +25°C° 0 mm 4 mps 750 mmHg 58%
13:00 +25°C° 0 mm 4 mps 750 mmHg 57%
14:00 +26°C° 0 mm 4 mps 750 mmHg 55%
15:00 +26°C° 0 mm 4 mps 750 mmHg 58%
16:00 +25°C° 0 mm 3 mps 750 mmHg 61%
17:00 +25°C° 0 mm 3 mps 749 mmHg 64%
18:00 +24°C° 0 mm 3 mps 749 mmHg 68%
19:00 +21°C° 0 mm 3 mps 749 mmHg 73%
20:00 +20°C° 0 mm 3 mps 749 mmHg 78%
21:00 +19°C° 0 mm 3 mps 749 mmHg 80%
22:00 +18°C° 0 mm 3 mps 749 mmHg 82%
23:00 +17°C° 0 mm 3 mps 750 mmHg 84%

19 June, Saturday

Time Temperature Precipitation Wind Pressure Humidity
00:00 +16°C° 0 mm 3 mps 750 mmHg 86%
01:00 +16°C° 0 mm 3 mps 749 mmHg 88%
02:00 +14°C° 0 mm 3 mps 749 mmHg 91%
03:00 +14°C° 0 mm 3 mps 750 mmHg 91%
04:00 +14°C° 0 mm 3 mps 750 mmHg 91%
05:00 +14°C° 0 mm 3 mps 750 mmHg 92%
06:00 +17°C° 0 mm 3 mps 750 mmHg 87%
07:00 +19°C° 0 mm 3 mps 750 mmHg 83%
08:00 +21°C° 0 mm 4 mps 750 mmHg 79%
09:00 +22°C° 0 mm 4 mps 750 mmHg 74%
10:00 +23°C° 0 mm 4 mps 749 mmHg 70%
11:00 +25°C° 0 mm 4 mps 749 mmHg 65%
12:00 +26°C° 0 mm 4 mps 749 mmHg 63%
13:00 +26°C° 0 mm 4 mps 749 mmHg 60%
14:00 +27°C° 0 mm 4 mps 749 mmHg 58%
15:00 +27°C° 0 mm 4 mps 748 mmHg 60%
16:00 +27°C° 0 mm 3 mps 748 mmHg 62%
17:00 +27°C° 0 mm 3 mps 748 mmHg 64%
18:00 +26°C° 0 mm 3 mps 748 mmHg 70%
19:00 +24°C° 0 mm 3 mps 748 mmHg 76%
20:00 +22°C° 0 mm 3 mps 747 mmHg 83%
21:00 +21°C° 0 mm 3 mps 748 mmHg 85%
22:00 +20°C° 0 mm 3 mps 748 mmHg 87%
23:00 +19°C° 0 mm 3 mps 748 mmHg 89%

20 June, Sunday

Time Temperature Precipitation Wind Pressure Humidity
00:00 +18°C° 0 mm 3 mps 748 mmHg 90%
01:00 +18°C° 0 mm 3 mps 748 mmHg 92%
02:00 +17°C° 0 mm 3 mps 748 mmHg 94%
03:00 +17°C° 0 mm 2 mps 748 mmHg 94%
04:00 +17°C° 0 mm 2 mps 748 mmHg 94%
05:00 +17°C° 0 mm 2 mps 748 mmHg 94%
06:00 +19°C° 0 mm 2 mps 748 mmHg 89%
07:00 +20°C° 0 mm 3 mps 748 mmHg 84%
08:00 +22°C° 0 mm 3 mps 748 mmHg 79%
09:00 +24°C° 0.2 mm 3 mps 747 mmHg 77%
10:00 +25°C° 0.2 mm 4 mps 747 mmHg 74%
11:00 +26°C° 0.2 mm 4 mps 747 mmHg 71%
12:00 +26°C° 0.2 mm 4 mps 747 mmHg 70%
13:00 +26°C° 0.2 mm 4 mps 747 mmHg 68%
14:00 +27°C° 0.2 mm 3 mps 746 mmHg 67%
15:00 +27°C° 0.2 mm 3 mps 746 mmHg 68%
16:00 +27°C° 0.2 mm 3 mps 746 mmHg 69%
17:00 +27°C° 0.2 mm 2 mps 746 mmHg 70%
18:00 +26°C° 0.4 mm 2 mps 746 mmHg 74%
19:00 +24°C° 0.4 mm 2 mps 746 mmHg 78%
20:00 +23°C° 0.4 mm 2 mps 746 mmHg 82%
21:00 +21°C° 0 mm 2 mps 746 mmHg 85%
22:00 +21°C° 0 mm 2 mps 746 mmHg 87%
23:00 +20°C° 0 mm 3 mps 745 mmHg 90%

21 June, Monday

Time Temperature Precipitation Wind Pressure Humidity
00:00 +19°C° 0 mm 3 mps 745 mmHg 91%
01:00 +19°C° 0 mm 3 mps 745 mmHg 92%
02:00 +18°C° 0 mm 3 mps 745 mmHg 92%
03:00 +18°C° 0 mm 3 mps 745 mmHg 92%
04:00 +18°C° 0 mm 2 mps 745 mmHg 92%
05:00 +17°C° 0 mm 2 mps 745 mmHg 92%
06:00 +19°C° 0 mm 3 mps 746 mmHg 88%
07:00 +21°C° 0 mm 3 mps 746 mmHg 83%
08:00 +22°C° 0 mm 3 mps 746 mmHg 79%
09:00 +23°C° 0 mm 4 mps 746 mmHg 74%
10:00 +26°C° 0 mm 4 mps 745 mmHg 69%
11:00 +27°C° 0 mm 4 mps 745 mmHg 64%
12:00 +27°C° 0 mm 4 mps 745 mmHg 61%
13:00 +28°C° 0 mm 5 mps 745 mmHg 59%
14:00 +28°C° 0 mm 5 mps 744 mmHg 57%
15:00 +28°C° 0 mm 4 mps 744 mmHg 60%
16:00 +29°C° 0 mm 4 mps 744 mmHg 62%
17:00 +29°C° 0 mm 3 mps 744 mmHg 65%
18:00 +27°C° 0 mm 3 mps 744 mmHg 71%
19:00 +26°C° 0 mm 3 mps 744 mmHg 77%
20:00 +24°C° 0 mm 3 mps 743 mmHg 82%
21:00 +22°C° 0 mm 3 mps 743 mmHg 85%
22:00 +21°C° 0 mm 3 mps 743 mmHg 88%
23:00 +20°C° 0 mm 3 mps 743 mmHg 91%
Show more